GW6664 Weather Reports


time (UTC)temp
C
wind
direction
speed
KPH
gust
KPH
rain 1hr
cm
rain 24hr
cm
rain mn
cm
humidity
%
barometer
mb
20260507104534 18 0 0.0 1.6 0.00 0.00 0.00 43 1012.9
20260507103033 19 97 0.0 0.0 0.00 0.00 0.00 41 1013.0
20260507101542 20 0 0.0 0.0 0.00 0.00 0.00 39 1013.0
20260507100036 21 0 0.0 1.6 0.00 0.00 0.00 38 1013.1
20260507094532 22 216 0.0 4.8 0.00 0.00 0.00 35 1013.1
20260507093041 23 237 4.8 8.0 0.00 0.00 0.00 31 1013.2
20260507091543 23 226 6.4 11.3 0.00 0.00 0.00 32 1013.3
20260507090040 22 221 4.8 11.3 0.00 0.00 0.00 32 1013.5
20260507084536 22 237 3.2 6.4 0.00 0.00 0.00 38 1013.8
20260507083035 21 248 1.6 3.2 0.00 0.00 0.00 41 1013.9
20260507081535 21 231 1.6 3.2 0.00 0.00 0.00 43 1013.9
20260507080043 21 231 0.0 3.2 0.00 0.00 0.00 40 1014.0
20260507074538 21 240 1.6 4.8 0.00 0.00 0.00 41 1014.0
20260507073036 21 0 0.0 0.0 0.00 0.00 0.00 42 1014.1
20260507071535 21 0 0.0 3.2 0.00 0.00 0.00 42 1014.2
20260507070035 22 0 0.0 4.8 0.00 0.00 0.00 40 1014.3
20260507064538 21 0 0.0 0.0 0.00 0.00 0.00 40 1014.2
20260507063037 23 0 0.0 4.8 0.00 0.00 0.00 37 1014.1
20260507061536 23 0 0.0 1.6 0.00 0.00 0.00 36 1014.1
20260507060035 24 0 0.0 19.3 0.00 0.00 0.00 34 1014.0
20260507054537 24 257 8.0 17.7 0.00 0.00 0.00 34 1014.0
20260507053038 24 264 9.7 19.3 0.00 0.00 0.00 34 1014.0
20260507051537 25 242 9.7 22.5 0.00 0.00 0.00 35 1014.0
20260507050038 25 207 12.9 20.9 0.00 0.00 0.00 36 1014.1
20260507044534 24 218 11.3 24.1 0.00 0.00 0.00 37 1014.1
20260507043039 24 285 9.7 25.7 0.00 0.00 0.00 38 1014.0
20260507041538 25 222 11.3 20.9 0.00 0.00 0.00 36 1014.0
20260507040042 25 240 11.3 19.3 0.00 0.00 0.00 36 1013.9
20260507034538 25 237 12.9 20.9 0.00 0.00 0.00 35 1013.7
20260507033035 25 220 11.3 20.9 0.00 0.00 0.00 36 1013.7
20260507031532 25 210 14.5 22.5 0.00 0.00 0.00 36 1013.6
20260507030032 25 240 12.9 22.5 0.00 0.00 0.00 36 1013.4
20260507024538 26 232 11.3 20.9 0.00 0.00 0.00 37 1013.2
20260507023045 26 232 16.1 24.1 0.00 0.00 0.00 37 1013.2
20260507021535 26 231 12.9 22.5 0.00 0.00 0.00 35 1013.0
20260507020041 27 209 8.0 16.1 0.00 0.00 0.00 33 1013.0
20260507014532 29 0 0.0 1.6 0.00 0.00 0.00 23 1012.9
20260507013049 31 0 0.0 3.2 0.00 0.00 0.00 18 1012.8
20260507011537 30 326 0.0 4.8 0.00 0.00 0.00 18 1012.8
20260507010037 31 0 0.0 3.2 0.00 0.00 0.00 17 1012.8
20260507004545 31 110 0.0 9.7 0.00 0.00 0.00 17 1012.8
20260507003042 31 0 0.0 3.2 0.00 0.00 0.00 17 1012.7
20260507001544 31 252 0.0 6.4 0.00 0.00 0.00 17 1012.8
20260507000038 31 6 0.0 9.7 0.00 0.00 0.00 17 1012.7
20260506234538 32 0 0.0 4.8 0.00 0.00 0.00 17 1012.7
20260506233053 31 196 0.0 9.7 0.00 0.00 0.00 18 1012.7
20260506231538 31 8 1.6 6.4 0.00 0.00 0.00 18 1012.8
20260506230047 32 0 1.6 6.4 0.00 0.00 0.00 17 1013.0
20260506224537 30 89 1.6 11.3 0.00 0.00 0.00 18 1013.1
20260506223042 31 357 0.0 12.9 0.00 0.00 0.00 17 1013.3
20260506221535 31 210 0.0 6.4 0.00 0.00 0.00 17 1013.4
20260506220035 31 0 1.6 9.7 0.00 0.00 0.00 18 1013.6
20260506214542 30 102 1.6 9.7 0.00 0.00 0.00 18 1013.9
20260506213049 31 22 1.6 11.3 0.00 0.00 0.00 17 1014.2
20260506211537 31 136 3.2 6.4 0.00 0.00 0.00 17 1014.3
20260506210037 30 81 3.2 9.7 0.00 0.00 0.00 18 1014.5
20260506204535 30 0 0.0 6.4 0.00 0.00 0.00 18 1014.5
20260506203035 29 30 1.6 8.0 0.00 0.00 0.00 19 1014.7
20260506201532 28 205 6.4 25.7 0.00 0.00 0.00 19 1015.0
20260506200038 29 108 0.0 8.0 0.00 0.00 0.00 19 1015.0
20260506194536 28 79 1.6 6.4 0.00 0.00 0.00 20 1015.2
20260506193037 28 44 0.0 4.8 0.00 0.00 0.00 19 1015.3
20260506191541 28 76 3.2 9.7 0.00 0.00 0.00 22 1015.5
20260506190038 27 115 0.0 6.4 0.00 0.00 0.00 24 1015.8
20260506184547 27 18 1.6 4.8 0.00 0.00 0.00 25 1015.9
20260506183050 26 36 1.6 6.4 0.00 0.00 0.00 26 1016.1
20260506181551 26 59 0.0 8.0 0.00 0.00 0.00 27 1016.1
20260506180035 26 82 1.6 3.2 0.00 0.00 0.00 27 1016.2
20260506174541 25 0 0.0 6.4 0.00 0.00 0.00 28 1016.2
20260506173054 24 101 1.6 8.0 0.00 0.00 0.00 29 1016.2
20260506171535 23 106 0.0 4.8 0.00 0.00 0.00 30 1016.3
20260506170039 23 99 0.0 3.2 0.00 0.00 0.00 30 1016.2
20260506164539 23 0 0.0 3.2 0.00 0.00 0.00 31 1016.1
20260506163040 21 0 0.0 3.2 0.00 0.00 0.00 34 1016.0
20260506161535 22 1 0.0 3.2 0.00 0.00 0.00 34 1015.9
20260506160036 21 0 0.0 3.2 0.00 0.00 0.00 37 1015.8
20260506154537 20 323 0.0 1.6 0.00 0.00 0.00 37 1015.8
20260506153055 20 0 0.0 1.6 0.00 0.00 0.00 38 1015.7
20260506151542 19 86 0.0 1.6 0.00 0.00 0.00 41 1015.8
20260506150037 18 0 0.0 1.6 0.00 0.00 0.00 41 1015.9
20260506144534 19 0 0.0 1.6 0.00 0.00 0.00 41 1015.8
20260506143034 18 0 0.0 0.0 0.00 0.00 0.00 41 1015.6
20260506141537 18 0 0.0 1.6 0.00 0.00 0.00 42 1015.5
20260506140038 17 0 0.0 0.0 0.00 0.00 0.00 46 1015.3
20260506134536 15 0 0.0 0.0 0.00 0.00 0.00 51 1015.3
20260506133035 15 0 0.0 1.6 0.00 0.00 0.00 50 1015.1
20260506131538 15 136 1.6 14.5 0.00 0.00 0.00 49 1014.8
20260506130038 15 0 6.4 19.3 0.00 0.00 0.00 49 1014.6
20260506124537 15 0 1.6 14.5 0.00 0.00 0.00 49 1014.5
20260506123037 14 0 3.2 14.5 0.00 0.00 0.00 52 1014.3
20260506121535 12 250 0.0 3.2 0.00 0.00 0.00 55 1014.4
20260506120039 14 0 0.0 0.0 0.00 0.00 0.00 52 1014.3
20260506114538 15 0 1.6 12.9 0.00 0.00 0.00 50 1014.2
20260506113042 15 0 0.0 16.1 0.00 0.00 0.00 50 1014.1
20260506111537 14 210 0.0 1.6 0.00 0.00 0.00 51 1014.1
20260506110036 15 0 1.6 17.7 0.00 0.00 0.00 48 1014.1